Location: Faicchio
(41.2833°N, 14.4833°E)
Time: 06:56:43
(UTC+00:00)

Resurs 1-4 Rocket - Pass Details

Date: 15 June 2025
Orbit: 798 x 812 km, 98.8° (Epoch: 16 July)

Event Time Altitude Azimuth Distance (km) Brightness Sun altitude
Rises 01:43:29 0° 9° (N) 3,316 6.4 -15.4°
Reaches altitude 10° 01:45:51 10° 6° (N) 2,383 5.5 -15.1°
Maximum altitude 01:51:01 60° 288° (WNW) 912 2.3 -14.5°
Enters shadow 01:54:32 21° 214° (SW) 1,750 3.2 -14.1°
